OBJECT AZ, 62656

Orbit data source: Space-Track

You're viewing an Uncataloged Satellite

Recently launched and/or uncataloged satellites may have evolving metadata. Metadata may include but not limited to: Owner, Maufacturer, Bus, Motor, and Mission.

OBJECT AZ, 62656 is a satellite in SSO that was launched on Tue, 14 Jan 2025 UTC via an FALCON 9 launch vehicle from the Air Force Western Test Range (AFWTR). Unknown objects in Earth's orbit typically refer to objects detected orbiting the Earth but have not yet been identified or cataloged. These objects could be anything from previously untracked satellites, spent rocket stages, debris from satellite collisions, or even natural meteoroids temporarily captured by Earth's gravity.

Loading next visibility...
Identifier
62656, 2025-009AZ
Orbit
SSO
Country
Flag of TBDTBD
Related business
None
Manufacturer
Unknown
Mission
Operational Civil Technology
Bus & Motor
Unknown
Mass
Unknown
Launch date (UTC)
2025-01-14 (11 months ago)
Launch vehicle
FALCON 9
Launch site
Air Force Western Test Range (AFWTR)
Object type
Unknown
Shape & HBR
Box, 0.1 m
Radar Cross Section
0.035 m², Small (<0.1 m²)

Expand to show TLE details & history
Last TLE update: 16 hours ago

TLE from 16 hours ago
0 OBJECT AZ
1 62656U 25009AZ  25353.47519725  .00009565  00000-0  35665-3 0  9992
2 62656  97.4117  72.1433 0000308 178.6448 181.4792 15.27640159 51531
Epoch: 2025-12-19T11:24Z
TLE epoch observation values (Epoch: 2025-12-19T11:24:17.042Z)
Latitude
-0.00003°
Longitude
172.75648°
Altitude
486.181 km
Speed
7.622 km/s
True Right ascension
04h 48m 34s
True Declination
0° 00' 00"
Sunlit
Object was in full shadow at epoch
Visualization orbit readout
Latitude
Unknown
Longitude
Unknown
Altitude
Unknown
Speed
Unknown
Apparent Right ascension
Unknown
Apparent Declination
Unknown
Sunlit
N/A
Visualization observer readout
Local Sidereal Time
02:11:00
Azimuth
Unknown
Elevation
Unknown
Doppler factor
Unknown
Orbital elements
Apogee altitude
480.036 km
Perigee altitude
479.614 km
Semi-major axis
6,857.962 km
Eccentricity
0.00003
Inclination
97.4117°
RAAN
72.1433°
Arg. of periapsis
178.6448°
True anomaly
181.47911°
Mean anomaly
181.4792°
Eccentric anomaly
181.47915°
Mean motion
3.82165 °/min
Orbital period
94.2 mins
BSTAR
0.00035665
Loading maneuver chart data...
Computing Atmospheric mass density...
Loading historical data...
Loading historical data...
Loading historical data...
Loading historical data...
Loading historical data...
Loading historical data...
Loading historical data...

Documentation

Showing up to 5 results
|